Notices

What's New in latest Release from April 7th, 2021:

- Updated Glossary, including Speed of Maximum Gust, and Total Hourly Precipitation

- Updated national and regional climate services offices contacts and prices information

- Addition of station inventory lists for 1981-2010, 1971-2000, and 1961-1990 Normals.

If you haven't already, please take our survey and provide feedback about our website: https://eccc.sondage-survey.ca/f/LanguageSelection.aspx?s=442ca660-fcf1-47c0-95a9-59707d6fd709

Hourly Data Report for November 26, 2019

CARBERRY CS
MANITOBA
Current Station Operator: ECCC - MSC

49°54'20.900" N
99°21'26.800" W
383.50 m
5010547
71170
WZE

Download Data

Hourly Data (November 2019)
Hourly Data Report for November 26, 2019
TIME
LST
Temp Definition
°C
Dew Point Definition
°C
Rel Hum Definition
%
Precip. Amount Definition
mm

Wind Dir Definition
10's deg

Wind Spd Definition
km/h
Visibility Definition
km
Stn Press Definition
kPa
Hmdx Definition


Wind Chill Definition


Weather Definition


00:00 -2.5 -3.5 92 0.0 27 9   96.32   -6 LegendNANA
01:00 -2.6 -3.8 91 0.0 28 10   96.36   -6 LegendNANA
02:00 -2.5 -3.4 93 0.0 27 9   96.42   -6 LegendNANA
03:00 -2.6 -3.3 95 0.0 28 5   96.44   -5 LegendNANA
04:00 -2.6 -3.9 91 0.0 28 9   96.50   -6 LegendNANA
05:00 -2.8 -2.9 99 0.0 27 9   96.53   -6 LegendNANA
06:00 -2.8 -2.9 100 0.0 28 8   96.57   -6 LegendNANA
07:00 -2.7 -2.7 100 0.0 32 9   96.64   -6 LegendNANA
08:00 -2.6 -2.7 100 0.4 1 6   96.69   -5 LegendNANA
09:00 -3.1 -3.1 100 0.6 2 7   96.74   -6 LegendNANA
10:00 -2.9 -3.2 98 0.0 3 6   96.80   -5 LegendNANA
11:00 -2.6 -3.6 93 0.0 4 8   96.86   -6 LegendNANA
12:00 -2.4 -3.7 91 0.0 4 7   96.88   -5 LegendNANA
13:00 -2.9 -3.4 97 0.0 1 7   96.92   -6 LegendNANA
14:00 -3.4 -4.7 91 0.0 1 12   96.93   -8 LegendNANA
15:00 -3.5 -4.5 93 0.0 1 11   96.98   -8 LegendNANA
16:00 -3.9 -4.5 95 0.0 3 13   97.02   -9 LegendNANA
17:00 -4.1 -4.6 97 0.0 2 10   97.06   -8 LegendNANA
18:00 -4.3 -4.9 95 0.0 2 10   97.09   -8 LegendNANA
19:00 -4.4 -4.9 96 0.0 1 9   97.13   -8 LegendNANA
20:00 -4.6 -5.5 93 0.0 36 8   97.17   -8 LegendNANA
21:00 -4.7 -5.8 92 0.0 36 12   97.17   -9 LegendNANA
22:00 -4.8 -6.5 88 0.0 2 13   97.19   -10 LegendNANA
23:00 -4.9 -6.5 89 0.0 2 12   97.20   -10 LegendNANA

Notes on Data Quality.

Legend

  • E = Estimated
  • M = Missing
  • NA = Not Available*
  • [empty] = Indicates an unobserved value
Date modified: